DELTA 1 DEB, 10874

Orbit data source: Space-Track

DELTA 1 DEB, 10874 is space debris in SSO originally from a launch on Thu, 29 Jul 1976 UTC launched from the Air Force Western Test Range (AFWTR). Debris objects in space refer to the collection of defunct objects orbiting the Earth. Examples of debris include non-operational satellites, rocket bodies, and fragments generated from explosions, collisions, or faulty payload assembly.

Loading next visibility...
Identifier
10874, 1976-077DC
Orbit
SSO
Country
Flag of USUS
Related business
Manufacturer
Unknown
Mission
Spacecraft
Bus & Motor
Unknown
Mass
Unknown
Launch date (UTC)
1976-07-29 (50 years ago)
Launch vehicle
Unknown
Launch site
Air Force Western Test Range (AFWTR)
Object type
Payload
Rocket body
Debris
Shape & HBR
Unknown shape, 0.1 m
Radar Cross Section
Medium (>0.1 m² and <1 m²)

Expand to show TLE details & history
Last TLE update: 2 days ago

TLE from 2 days ago
0 DELTA 1 DEB
1 10874U 76077DC  26171.38329992  .00001340  00000-0  35949-2 0  9999
2 10874 102.0032 336.9612 0055264 247.8549 141.4384 13.17030638337898
Epoch: 2026-06-20T09:11Z
TLE epoch observation values (Epoch: 2026-06-20T09:11:57.113Z)
Latitude
29.02122°
Longitude
-76.36542°
Altitude
1,232.276 km
Speed
7.225 km/s
True Right ascension
22h 00m 53s
True Declination
28° 53' 05"
Sunlit
Object was in daylight at epoch
Visualization orbit readout
Latitude
Unknown
Longitude
Unknown
Altitude
Unknown
Speed
Unknown
Apparent Right ascension
Unknown
Apparent Declination
Unknown
Sunlit
N/A
Visualization observer readout
Local Sidereal Time
02:14:37
Azimuth
Unknown
Elevation
Unknown
Doppler factor
Unknown
Orbital elements
Apogee altitude
1,235.402 km
Perigee altitude
1,151.714 km
Semi-major axis
7,571.695 km
Eccentricity
0.00553
Inclination
102.0032°
RAAN
336.9612°
Arg. of periapsis
247.8549°
True anomaly
141.83103°
Mean anomaly
141.4384°
Eccentric anomaly
141.63493°
Mean motion
3.29423 °/min
Orbital period
109.28 mins
BSTAR
0.0035949
Loading maneuver chart data...
Computing Atmospheric mass density...
Loading historical data...
Loading historical data...
Loading historical data...
Loading historical data...
Loading historical data...
Loading historical data...
Loading historical data...

Documentation

Showing up to 5 results
|